Date,TemperatureHighF,TemperatureAvgF,TemperatureLowF,DewpointHighF,DewpointAvgF,DewpointLowF,HumidityHigh,HumidityAvg,HumidityLow,PressureMaxIn,PressureMinIn,WindSpeedMaxMPH,WindSpeedAvgMPH,GustSpeedMaxMPH,PrecipitationSumIn
2013-2-1,39.4,24.9,19.0,29.0,10.3,-99.9,80,58,43,30.50,30.04,16,-17,27,0.00
2013-2-2,40.4,28.3,17.6,31.0,19.2,9.0,95,71,37,30.51,30.18,3,0,6,0.00
2013-2-3,40.8,33.9,28.0,32.0,26.2,20.0,95,74,54,30.17,30.01,28,5,37,0.01
2013-2-4,49.8,35.8,25.6,26.0,21.8,17.0,76,59,38,30.26,30.11,9,0,19,0.01
2013-2-5,52.5,41.5,30.8,37.0,30.6,25.0,81,66,52,30.12,30.04,6,1,12,0.00
2013-2-6,54.3,44.9,34.8,36.0,27.1,20.0,86,53,28,30.33,30.12,13,2,17,0.00
2013-2-7,46.4,41.3,38.4,40.0,30.3,19.0,96,69,34,30.34,30.10,10,4,18,0.30
2013-2-8,47.4,40.5,33.2,44.0,36.4,27.0,99,86,59,30.24,30.03,18,4,33,0.30
2013-2-9,50.7,38.0,27.6,27.0,22.7,14.0,87,59,23,30.45,30.22,8,1,26,0.00
2013-2-10,48.1,42.2,38.8,45.0,27.4,20.0,98,58,41,30.50,30.25,8,1,10,0.29
2013-2-11,56.3,50.6,46.4,55.0,43.8,19.0,98,81,31,30.26,30.08,8,1,12,0.37
2013-2-12,50.5,44.2,38.8,37.0,25.6,18.0,92,51,28,30.21,30.01,9,2,18,0.12
2013-2-13,48.0,39.3,34.7,45.0,36.8,30.0,98,91,72,30.00,29.74,8,1,23,0.01
2013-2-14,49.4,38.9,29.6,31.0,27.4,25.0,83,66,40,30.17,30.01,10,2,16,0.01
2013-2-15,53.8,39.1,27.9,37.0,30.0,26.0,94,73,38,30.23,30.06,18,1,20,0.00
2013-2-16,34.8,29.6,21.6,27.0,20.8,11.0,89,70,48,30.13,29.96,17,4,37,0.00
2013-2-17,31.5,24.9,19.2,11.0,9.0,6.0,65,52,36,30.42,30.13,26,6,36,0.00
2013-2-18,48.6,34.7,19.8,25.0,18.8,10.0,75,54,38,30.51,30.32,3,0,9,0.00
2013-2-19,49.8,40.4,32.9,42.0,26.6,14.0,95,61,33,30.31,29.97,16,3,22,0.06
2013-2-20,44.4,34.9,29.1,16.0,4.2,-13.0,53,31,9,30.27,30.14,28,4,32,0.00
2013-2-21,58.0,39.0,23.9,35.0,15.2,5.0,87,43,14,30.35,30.21,5,1,7,0.23
2013-2-22,40.0,36.8,33.3,39.0,35.3,31.0,97,94,86,30.37,30.20,7,1,10,0.36
2013-2-23,53.4,45.3,38.1,50.0,44.0,37.0,99,95,72,30.21,29.93,3,0,11,0.24
2013-2-24,51.7,45.0,38.9,40.0,28.4,20.0,84,56,29,30.14,29.95,14,3,19,0.00
2013-2-25,43.3,37.3,31.8,28.0,24.6,22.0,85,61,52,30.24,30.10,13,3,18,0.00
2013-2-26,39.7,34.5,30.3,39.0,33.1,28.0,98,95,87,30.14,29.71,11,1,22,0.64
2013-2-27,52.9,41.6,33.9,39.0,32.9,29.0,98,73,42,29.91,29.77,10,2,19,0.00
2013-2-28,37.5,33.8,30.1,33.0,26.0,23.0,85,73,62,30.04,29.82,13,4,19,0.00